timestamp,surface_pressure_avg,surface_temp_avg,battery_voltage,lat,long
2023-10-09 00:09:01+00:00,260.2364,13.1,11.77,47.84626,-54.09684
2023-10-09 00:19:00+00:00,258.5297,13.0,11.77,47.84626,-54.09684
2023-10-09 00:29:00+00:00,255.0831,13.0,11.77,47.84626,-54.09684
2023-10-09 00:39:00+00:00,252.5132,13.0,11.77,47.84626,-54.09684
2023-10-09 00:49:00+00:00,252.9215,12.99,11.77,47.84626,-54.09684
2023-10-09 00:59:00+00:00,250.4314,12.99,11.77,47.84626,-54.09684
2023-10-09 01:09:00+00:00,245.2681,12.9,11.77,47.84626,-54.09684
2023-10-09 01:19:00+00:00,244.5181,12.9,11.7,47.84626,-54.09684
2023-10-09 01:29:00+00:00,247.0914,12.89,11.7,47.84626,-54.09684
2023-10-09 01:39:00+00:00,244.393,12.9,11.7,47.84626,-54.09684
2023-10-09 01:49:00+00:00,240.7881,12.9,11.7,47.84626,-54.09684
2023-10-09 01:59:00+00:00,240.4415,12.9,11.7,47.84626,-54.09684
2023-10-09 02:09:00+00:00,241.0847,12.9,11.7,47.84626,-54.09684
2023-10-09 02:19:00+00:00,239.8814,12.9,11.7,47.84626,-54.09684
2023-10-09 02:29:00+00:00,240.3414,12.9,11.7,47.84626,-54.09684
2023-10-09 02:39:00+00:00,242.668,12.9,11.7,47.84626,-54.09684
2023-10-09 02:49:00+00:00,242.6447,12.96,11.7,47.84626,-54.09684
2023-10-09 02:59:00+00:00,240.7181,12.96,11.7,47.84626,-54.09684
2023-10-09 03:09:00+00:00,240.733,13.0,11.7,47.84626,-54.09684
2023-10-09 03:19:00+00:00,242.3631,13.0,11.7,47.84626,-54.09684
2023-10-09 03:29:00+00:00,244.5447,12.9,11.7,47.84626,-54.09684
2023-10-09 03:39:00+00:00,245.8164,12.9,11.7,47.84626,-54.09684
2023-10-09 03:49:00+00:00,248.9364,13.0,11.7,47.84626,-54.09684
2023-10-09 03:59:00+00:00,254.2348,12.98,11.7,47.84626,-54.09684
2023-10-09 04:09:00+00:00,258.213,12.9,11.7,47.84626,-54.09684
2023-10-09 04:19:00+00:00,261.6281,12.95,11.7,47.84626,-54.09684
2023-10-09 04:29:00+00:00,266.8814,12.99,11.7,47.84626,-54.09684
2023-10-09 04:39:00+00:00,269.5381,13.0,11.7,47.84626,-54.09684
2023-10-09 04:49:00+00:00,270.0497,12.97,11.7,47.84626,-54.09684
2023-10-09 04:59:00+00:00,272.8498,12.99,11.7,47.84626,-54.09684
2023-10-09 05:09:00+00:00,276.5464,12.9,11.7,47.84626,-54.09684
2023-10-09 05:19:00+00:00,277.8247,12.9,11.7,47.84626,-54.09684
2023-10-09 05:29:00+00:00,277.8364,12.91,11.7,47.84626,-54.09684
2023-10-09 05:39:00+00:00,282.4314,12.94,11.7,47.84626,-54.09684
2023-10-09 05:49:00+00:00,288.2513,12.95,11.7,47.84626,-54.09684
2023-10-09 05:59:00+00:00,291.2564,12.96,11.7,47.84626,-54.09684
2023-10-09 06:09:00+00:00,293.5914,12.95,11.7,47.84626,-54.09684
2023-10-09 06:19:00+00:00,298.0847,12.97,11.7,47.84626,-54.09684
2023-10-09 06:29:00+00:00,302.0347,12.95,11.7,47.84626,-54.09684
2023-10-09 06:39:00+00:00,302.8013,12.9,11.7,47.84626,-54.09684
2023-10-09 06:49:00+00:00,301.6913,12.9,11.7,47.84626,-54.09684
2023-10-09 06:59:00+00:00,304.9263,12.9,11.7,47.84626,-54.09684
2023-10-09 07:09:00+00:00,306.1714,12.9,11.7,47.84626,-54.09684
2023-10-09 07:19:00+00:00,304.1964,12.9,11.7,47.84626,-54.09684
2023-10-09 07:29:00+00:00,304.2879,12.9,11.7,47.84626,-54.09684
2023-10-09 07:39:00+00:00,307.4297,12.9,11.7,47.84626,-54.09684
2023-10-09 07:49:00+00:00,307.2064,12.89,11.7,47.84626,-54.09684
2023-10-09 07:59:00+00:00,304.4114,12.88,11.7,47.84626,-54.09684
2023-10-09 08:09:00+00:00,305.5064,12.8,11.7,47.84626,-54.09684
2023-10-09 08:19:00+00:00,307.52299999999997,12.8,11.7,47.84626,-54.09684
2023-10-09 08:29:00+00:00,305.2596,12.8,11.7,47.84626,-54.09684
2023-10-09 08:39:00+00:00,301.9363,12.8,11.7,47.84626,-54.09684
2023-10-09 08:49:00+00:00,301.2097,12.8,11.7,47.84626,-54.09684
2023-10-09 08:59:00+00:00,298.7463,12.82,11.7,47.84626,-54.09684
2023-10-09 09:09:00+00:00,290.9664,12.89,11.7,47.84626,-54.09684
2023-10-09 09:19:00+00:00,287.3196,12.89,11.7,47.84626,-54.09684
2023-10-09 09:29:00+00:00,289.5697,12.8,11.7,47.84626,-54.09684
2023-10-09 09:39:00+00:00,288.2681,12.8,11.7,47.84626,-54.09684
2023-10-09 09:49:00+00:00,282.2764,12.83,11.7,47.84626,-54.09684
2023-10-09 09:59:00+00:00,281.1131,12.82,11.7,47.84626,-54.09684
2023-10-09 10:09:00+00:00,280.8814,12.84,11.7,47.84626,-54.09684
2023-10-09 10:19:00+00:00,276.6364,12.85,11.7,47.84626,-54.09684
2023-10-09 10:29:00+00:00,272.4414,12.84,11.7,47.84626,-54.09684
2023-10-09 10:39:00+00:00,272.6198,12.82,11.7,47.84626,-54.09684
2023-10-09 10:49:00+00:00,268.8614,12.89,11.7,47.84626,-54.09684
2023-10-09 10:59:00+00:00,262.8531,12.9,11.7,47.84626,-54.09684
2023-10-09 11:09:00+00:00,260.4464,12.97,11.7,47.84626,-54.09684
2023-10-09 11:19:01+00:00,260.4347,12.99,11.77,47.84626,-54.09684
2023-10-09 11:29:01+00:00,255.8631,13.0,11.77,47.84626,-54.09684
2023-10-09 11:39:01+00:00,252.4697,13.0,11.77,47.84626,-54.09684
2023-10-09 11:49:01+00:00,253.3631,13.0,11.77,47.84626,-54.09684
2023-10-09 11:59:01+00:00,253.2764,13.0,11.77,47.84626,-54.09684
2023-10-09 12:09:01+00:00,250.4564,13.0,11.77,47.84626,-54.09684
2023-10-09 12:19:00+00:00,247.8681,13.0,12.09,47.84626,-54.09684
2023-10-09 12:29:00+00:00,247.1997,13.0,12.09,47.84626,-54.09684
2023-10-09 12:39:00+00:00,244.9998,12.9,12.09,47.84626,-54.09684
2023-10-09 12:49:00+00:00,243.0147,12.8,12.09,47.84626,-54.09684
2023-10-09 12:59:00+00:00,242.0815,12.7,12.09,47.84626,-54.09684
2023-10-09 13:09:00+00:00,243.5414,12.6,12.09,47.84626,-54.09684
2023-10-09 13:19:00+00:00,243.7281,12.6,12.17,47.84626,-54.09684
2023-10-09 13:29:00+00:00,241.6597,12.6,12.17,47.84626,-54.09684
2023-10-09 13:39:00+00:00,240.5797,12.6,12.17,47.84626,-54.09684
2023-10-09 13:49:00+00:00,239.8864,12.6,12.17,47.84626,-54.09684
2023-10-09 13:59:00+00:00,238.2914,12.62,12.17,47.84626,-54.09684
2023-10-09 14:09:00+00:00,237.7464,12.69,12.17,47.84626,-54.09684
2023-10-09 14:19:00+00:00,236.9831,12.7,12.01,47.84626,-54.09684
2023-10-09 14:29:00+00:00,235.7481,12.7,12.01,47.84626,-54.09684
2023-10-09 14:39:00+00:00,236.8648,12.71,12.01,47.84626,-54.09684
2023-10-09 14:49:00+00:00,236.9781,12.8,12.01,47.84626,-54.09684
2023-10-09 14:59:00+00:00,235.7781,12.89,12.01,47.84626,-54.09684
2023-10-09 15:09:00+00:00,238.03799999999998,12.89,12.01,47.84626,-54.09684
2023-10-09 15:19:00+00:00,242.3564,12.9,11.93,47.84626,-54.09684
2023-10-09 15:29:00+00:00,241.3464,12.9,11.93,47.84626,-54.09684
2023-10-09 15:39:00+00:00,239.8898,12.9,11.93,47.84626,-54.09684
2023-10-09 15:49:00+00:00,242.9264,12.98,11.93,47.84626,-54.09684
2023-10-09 15:59:00+00:00,246.5281,12.95,11.93,47.84626,-54.09684
2023-10-09 16:09:00+00:00,246.3081,12.93,11.93,47.84626,-54.09684
2023-10-09 16:19:00+00:00,249.5515,12.9,11.86,47.84626,-54.09684
2023-10-09 16:29:00+00:00,256.1064,12.9,11.86,47.84626,-54.09684
2023-10-09 16:39:00+00:00,259.903,12.9,11.86,47.84626,-54.09684
2023-10-09 16:49:00+00:00,260.2047,12.9,11.86,47.84626,-54.09684
2023-10-09 16:59:00+00:00,264.9764,12.9,11.86,47.84626,-54.09684
2023-10-09 17:09:00+00:00,271.393,12.9,11.86,47.84626,-54.09684
2023-10-09 17:19:01+00:00,274.0147,12.9,11.86,47.84626,-54.09684
2023-10-09 17:29:01+00:00,274.173,12.9,11.86,47.84626,-54.09684
2023-10-09 17:39:01+00:00,278.6047,12.89,11.86,47.84626,-54.09684
2023-10-09 17:49:01+00:00,282.0747,12.9,11.86,47.84626,-54.09684
2023-10-09 17:59:01+00:00,282.713,12.9,11.86,47.84626,-54.09684
2023-10-09 18:09:01+00:00,286.038,12.9,11.86,47.84626,-54.09684
2023-10-09 18:19:00+00:00,293.163,12.9,11.77,47.84626,-54.09684
2023-10-09 18:29:00+00:00,298.0031,12.88,11.77,47.84626,-54.09684
2023-10-09 18:39:00+00:00,300.378,12.89,11.77,47.84626,-54.09684
2023-10-09 18:49:00+00:00,303.2797,12.89,11.77,47.84626,-54.09684
2023-10-09 18:59:00+00:00,306.8497,12.84,11.77,47.84626,-54.09684
2023-10-09 19:09:00+00:00,312.2614,12.8,11.77,47.84626,-54.09684
2023-10-09 19:19:01+00:00,316.398,12.8,11.77,47.84626,-54.09684
2023-10-09 19:29:01+00:00,317.6346,12.8,11.77,47.84626,-54.09684
2023-10-09 19:39:01+00:00,320.2513,12.8,11.77,47.84626,-54.09684
2023-10-09 19:49:01+00:00,324.108,12.8,11.77,47.84626,-54.09684
2023-10-09 19:59:01+00:00,326.0513,12.8,11.77,47.84626,-54.09684
2023-10-09 20:09:01+00:00,327.1163,12.8,11.77,47.84626,-54.09684
2023-10-09 20:19:00+00:00,330.92800000000005,12.8,11.77,47.84626,-54.09684
2023-10-09 20:29:00+00:00,336.2897,12.8,11.77,47.84626,-54.09684
2023-10-09 20:39:00+00:00,337.8130000000001,12.8,11.77,47.84626,-54.09684
2023-10-09 20:49:00+00:00,336.9263,12.8,11.77,47.84626,-54.09684
2023-10-09 20:59:00+00:00,337.7097,12.8,11.77,47.84626,-54.09684
2023-10-09 21:09:00+00:00,338.5779,12.82,11.77,47.84626,-54.09684
2023-10-09 21:19:00+00:00,337.5446,12.87,11.77,47.84626,-54.09684
2023-10-09 21:29:00+00:00,333.8863,12.89,11.77,47.84626,-54.09684
2023-10-09 21:39:00+00:00,331.9713,12.9,11.77,47.84626,-54.09684
2023-10-09 21:49:00+00:00,329.4564,12.9,11.77,47.84626,-54.09684
2023-10-09 21:59:00+00:00,323.4613,12.9,11.77,47.84626,-54.09684
2023-10-09 22:09:00+00:00,319.4064,12.9,11.77,47.84626,-54.09684
2023-10-09 22:19:00+00:00,316.5313,12.9,11.7,47.84626,-54.09684
2023-10-09 22:29:00+00:00,313.4147,12.9,11.7,47.84626,-54.09684
2023-10-09 22:39:00+00:00,308.6747,12.9,11.7,47.84626,-54.09684
2023-10-09 22:49:00+00:00,304.2396,12.9,11.7,47.84626,-54.09684
2023-10-09 22:59:00+00:00,302.0397,12.9,11.7,47.84626,-54.09684
2023-10-09 23:09:00+00:00,297.278,12.9,11.7,47.84626,-54.09684
2023-10-09 23:19:00+00:00,291.8831,12.9,11.7,47.84626,-54.09684
2023-10-09 23:29:00+00:00,289.708,12.9,11.7,47.84626,-54.09684
2023-10-09 23:39:00+00:00,286.8347,12.91,11.7,47.84626,-54.09684
2023-10-09 23:49:00+00:00,280.8897,12.9,11.7,47.84626,-54.09684
2023-10-09 23:59:00+00:00,275.7547,12.9,11.7,47.84626,-54.09684
